sat.trackr.live / text

‹ back to catalog

STARLINK-32950

NORAD 63566 · 2025-075U

PAYLOAD ACTIVE UNKNOWN

§ Identity

Operator
Country
US
Launch date
2025-04-13
Launch site
AFETR
Launch vehicle
Mass (kg)
RCS (m²)

Purposes: comms

External: N2YO · Heavens-Above · Gunter

§ Orbital elements

Epoch: 2026-05-25T05:02:20.410944Z

Period
94.27 min
Inclination
43.0011°
Eccentricity
0.0001682
Mean motion
15.27590838 rev/d
Perigee alt
481.9 km
Apogee alt
484.2 km
Semi-major
6,861.2 km
B*
5.8764e-4
RAAN
198.1267°
Arg perigee
261.0095°
Mean anomaly
99.0566°
Rev number
6,363

§ Raw data

STARLINK-329501 63566U 25075U   26145.20995846  .00015949  00000+0  58764-3 0  99962 63566  43.0011 198.1267 0001682 261.0095  99.0566 15.27590838 63632

JSON: /api/v1/satellites/63566 · /tle

For live sub-satellite position, see the globe view (requires WebGL).

§ Visibility from observer

Set your observer location to see the next 7 days of passes ≥ 10°. The values pass through the URL so the page stays shareable.

No JS? Fill the form by hand. The geolocation button needs JavaScript.